BEIDOU-3 M13 (C32)

Last updated on Sun Jul 06 2025 00:03:19 GMT+0000 (Coordinated Universal Time)

1 43622U 18072A 25185.58912373 -.00000078 00000+0 00000+0 0 9998 2 43622 56.3148 74.1570 0006436 323.8842 36.1140 1.86231512 46182
UTC large
Height (km)
Speed (km/s)
/
Latitude / Longitude
Inclination (degrees)
Orbital Period (minutes)
Azimuth
Elevation
Range (km)
Doppler Factor

Next 0 passes for location: London (51.5072 / 0.1276)

Sorry there are no passes over London.